SL-16 DEB

基本信息
目录编号:
22421
目录名称:
SL-16 DEB
国际标识:
1992-093DN
轨道中心:
EARTH
物体状态:
在轨
发射日期:
1992-12-25 UTC
轨道信息
数据来源: 国际轨道数据
星历时间: 2026-07-28T02:48:52+0800
半长轴: 7231.69km
偏心率: 0.0094998
轨道倾角: 71.033°
近地点辐角: 247.951°
升交点赤经: 40.658°
平近点角: 124.282°
近地点: 784.853km
远地点: 922.253km
周期: 102.005分钟
每日圈数: 14.117023
详细信息
发射场:
TTMTR
轨道高度:
LEO
数据来源:
AOE Integration Group
参考系:
TEME
时间系统:
UTC
历元类型:
SGP4
2D轨道图
3D轨道图
轨道高度分析图
轨道倾角分析图
轨道综合分析图
查看轨道综合分析图